date,time,DOY,Ta_1_1_1,RH_1_1_1,LWin_1_1_1,LWout_1_1_1,SWin_1_1_1,SWout_1_1_1,PPFD_1_1_1,SWC_1_1_1,Ts_1_1_1
[yyyy-mm-dd],[HH:MM],[ddd.ddd],[K],[%],[W+1m-2],[W+1m-2],[W+1m-2],[W+1m-2],[µmol+1m-2s-1],[m+3m-3],[K]
2013-01-02,00:30,2.020,261.94266666666664,87.910666666666685,-4.2773333333333330,-7.8823333333333343,-0.41000000000000009,-0.43166666666666670,1.50000000000000029E-002,-9999.0,279.90999999999991
2013-01-02,01:00,2.041,261.85900000000004,87.692333333333352,-4.9290000000000003,-8.1890000000000018,-0.63566666666666671,-0.68466666666666676,1.20000000000000002E-002,-9999.0,279.90999999999991
2013-01-02,01:30,2.062,261.80233333333342,87.619333333333344,-5.0153333333333334,-7.6536666666666653,-0.62499999999999989,-0.65699999999999992,1.00000000000000019E-002,-9999.0,279.90999999999991
2013-01-02,02:00,2.083,261.83966666666669,87.640666666666689,-4.8506666666666671,-7.8600000000000003,-0.57866666666666677,-0.60266666666666657,9.66666666666666716E-003,-9999.0,279.90999999999991
2013-01-02,02:30,2.104,261.86833333333334,87.663666666666671,-4.7903333333333347,-7.7076666666666682,-0.54700000000000004,-0.55933333333333335,1.96666666666666691E-002,-9999.0,279.90999999999991
2013-01-02,03:00,2.124,261.85600000000005,87.626333333333335,-5.0163333333333329,-7.5066666666666668,-0.61166666666666680,-0.64466666666666650,1.63333333333333351E-002,-9999.0,279.90999999999991
2013-01-02,03:30,2.145,261.81666666666672,87.575666666666663,-4.4516666666666671,-6.6766666666666667,-0.50066666666666693,-0.53533333333333344,1.03333333333333350E-002,-9999.0,279.90999999999991
2013-01-02,04:00,2.166,261.79100000000005,87.507333333333321,-4.1816666666666675,-6.6536666666666662,-0.40566666666666673,-0.47866666666666663,1.23333333333333368E-002,-9999.0,279.90999999999991
2013-01-02,04:30,2.187,261.82900000000001,87.523666666666671,-4.4206666666666674,-5.3556666666666652,-0.45533333333333326,-0.45933333333333332,9.33333333333333411E-003,-9999.0,279.90999999999991
2013-01-02,05:00,2.208,261.92866666666663,87.640333333333331,-4.8086666666666673,-5.7863333333333342,-0.52633333333333343,-0.50033333333333330,1.70000000000000012E-002,-9999.0,279.90999999999991
2013-01-02,05:30,2.229,262.01333333333338,87.760666666666651,-4.4636666666666667,-5.8770000000000007,-0.49033333333333329,-0.42533333333333345,1.46666666666666681E-002,-9999.0,279.90999999999991
2013-01-02,06:00,2.249,262.07366666666672,87.869000000000000,-4.3850000000000007,-6.2679999999999998,-0.46233333333333332,-0.39066666666666650,1.66666666666666630E-002,-9999.0,279.90999999999991
2013-01-02,06:30,2.270,262.13699999999994,87.982666666666688,-4.9610000000000003,-6.6063333333333336,-0.56066666666666654,-0.50233333333333341,1.36666666666666690E-002,-9999.0,279.90999999999991
2013-01-02,07:00,2.291,262.19099999999997,88.078333333333319,-4.7999999999999998,-6.7096666666666662,-0.53566666666666685,-0.49600000000000011,9.00000000000000105E-003,-9999.0,279.90999999999991
2013-01-02,07:30,2.312,262.19166666666666,88.067999999999984,-4.6106666666666651,-7.0223333333333331,-0.45833333333333331,-0.33900000000000008,0.27666666666666667,-9999.0,279.90999999999991
2013-01-02,08:00,2.333,262.15666666666664,88.012000000000000,-4.4226666666666672,-7.4599999999999982,0.44833333333333331,2.9536666666666664,6.3533333333333326,-9999.0,279.90999999999991
2013-01-02,08:30,2.354,262.16033333333331,87.966666666666683,-4.2783333333333342,-8.3876666666666679,2.6379999999999995,11.610333333333333,27.514666666666667,-9999.0,279.90999999999991
2013-01-02,09:00,2.374,262.25999999999999,87.996666666666684,-4.2953333333333337,-9.1283333333333339,7.5689999999999991,30.945000000000007,70.105666666666664,-9999.0,279.90999999999991
2013-01-02,09:30,2.395,262.48066666666671,88.214333333333329,-3.7509999999999999,-8.5903333333333354,10.875666666666669,43.759666666666675,101.90766666666667,-9999.0,279.90999999999991
2013-01-02,10:00,2.416,262.81766666666670,88.576333333333324,-3.8749999999999991,-9.2236666666666700,14.392666666666665,57.867666666666672,136.04933333333332,-9999.0,279.90999999999991
2013-01-02,10:30,2.437,262.98866666666675,88.691333333333333,-3.3489999999999998,-8.8056666666666672,21.171666666666670,83.630000000000010,195.10700000000000,-9999.0,279.90999999999991
2013-01-02,11:00,2.458,263.17766666666660,88.808666666666696,-3.4106666666666658,-9.3700000000000010,27.936666666666664,110.11166666666665,256.10000000000002,-9999.0,279.90999999999991
2013-01-02,11:30,2.479,263.20833333333337,88.845666666666645,-3.4233333333333329,-9.6092592592592592,28.551666666666666,113.03333333333332,265.72000000000003,-9999.0,279.90999999999991
2013-01-02,12:00,2.499,263.23633333333339,88.842666666666688,-3.0586666666666673,-9.6005000000000003,30.753666666666671,124.12333333333335,287.76666666666659,-9999.0,279.90999999999991
2013-01-02,12:30,2.520,263.27666666666676,88.896000000000001,-3.0356666666666658,-9999.0,28.107333333333333,115.43333333333334,266.94233333333324,-9999.0,279.90999999999991
2013-01-02,13:00,2.541,263.39400000000001,89.043333333333322,-3.3396666666666657,-9999.0,26.120999999999999,107.76333333333332,252.01400000000001,-9999.0,279.90999999999991
2013-01-02,13:30,2.562,263.67866666666663,89.307333333333347,-3.4609999999999994,-9999.0,22.964666666666670,96.013333333333350,225.08700000000005,-9999.0,279.90999999999991
2013-01-02,14:00,2.583,264.24466666666672,89.672666666666657,-3.5120000000000000,-9999.0,32.461333333333329,135.14899999999997,303.19666666666666,-9999.0,279.90999999999991
2013-01-02,14:30,2.604,264.81100000000004,89.429666666666677,-3.8686666666666656,-9999.0,41.310666666666670,175.29966666666667,379.67866666666663,-9999.0,279.90999999999991
2013-01-02,15:00,2.624,265.16099999999994,86.353000000000023,-5.7346666666666666,-9999.0,26.436333333333337,113.91133333333330,252.33133333333336,-9999.0,279.90999999999991
2013-01-02,15:30,2.645,265.69133333333338,79.828666666666692,-6.4189999999999996,-9999.0,17.195333333333334,75.829666666666668,161.19033333333334,-9999.0,279.90999999999991
2013-01-02,16:00,2.666,265.96433333333334,74.431666666666658,-6.3896666666666659,-9999.0,6.2036666666666669,25.944000000000006,60.061666666666653,-9999.0,279.90999999999991
2013-01-02,16:30,2.687,265.81333333333339,73.126999999999995,-5.8463333333333320,-9999.0,0.94633333333333358,3.2240000000000006,13.598666666666668,-9999.0,279.90999999999991
2013-01-02,17:00,2.708,265.69600000000003,73.706333333333333,-6.2376666666666658,-9999.0,-0.38399999999999995,-2.1063333333333332,0.79699999999999982,-9999.0,279.90999999999991
2013-01-02,17:30,2.729,265.62233333333336,74.415333333333336,-6.4316666666666666,-9999.0,-0.52766666666666662,-2.2266666666666670,1.66666666666666699E-002,-9999.0,279.90999999999991
2013-01-02,18:00,2.749,265.48599999999999,74.756666666666675,-6.2493333333333334,-9999.0,-0.41166666666666668,-1.8226666666666669,9.66666666666666542E-003,-9999.0,279.90999999999991
2013-01-02,18:30,2.770,265.37000000000000,75.211666666666659,-6.1436666666666664,-9999.0,-0.46266666666666673,-1.2783333333333333,1.36666666666666672E-002,-9999.0,279.90999999999991
2013-01-02,19:00,2.791,265.28300000000007,74.795666666666662,-5.9476666666666658,-9999.0,-0.48066666666666680,-0.99666666666666681,1.13333333333333359E-002,-9999.0,279.90999999999991
2013-01-02,19:30,2.812,265.18799999999999,74.907333333333327,-5.8150000000000004,-9999.0,-0.50799999999999990,-0.95066666666666655,1.66666666666666699E-002,-9999.0,279.90999999999991
2013-01-02,20:00,2.833,264.97699999999998,75.549666666666681,-5.1783333333333328,-9999.0,-0.42500000000000004,-0.89966666666666650,1.50000000000000029E-002,-9999.0,279.90999999999991
2013-01-02,20:30,2.854,264.78900000000004,75.001666666666679,-4.9596666666666671,-9999.0,-0.33733333333333326,-0.86733333333333329,7.33333333333333233E-003,-9999.0,279.90999999999991
2013-01-02,21:00,2.874,264.57400000000001,74.730333333333348,-4.8563333333333345,-9999.0,-0.35200000000000004,-0.87099999999999977,1.03333333333333350E-002,-9999.0,279.90999999999991
2013-01-02,21:30,2.895,264.36166666666674,74.929000000000002,-5.0629999999999979,-9999.0,-0.34999999999999998,-0.94133333333333336,1.30000000000000011E-002,-9999.0,279.90999999999991
2013-01-02,22:00,2.916,264.15966666666668,78.381000000000014,-4.7216666666666667,-9999.0,-0.38633333333333336,-0.87633333333333352,1.33333333333333307E-002,-9999.0,279.90999999999991
2013-01-02,22:30,2.937,263.90233333333333,82.616999999999990,-4.5743333333333327,-9999.0,-0.42199999999999999,-0.87766666666666648,1.16666666666666689E-002,-9999.0,279.90999999999991
2013-01-02,23:00,2.958,263.78166666666675,82.624333333333354,-4.9236666666666649,-9999.0,-0.44766666666666671,-0.91699999999999993,7.33333333333333406E-003,-9999.0,279.90999999999991
2013-01-02,23:30,2.979,263.73766666666671,83.081333333333333,-4.7300000000000004,-9999.0,-0.41866666666666669,-0.84133333333333327,1.30000000000000046E-002,-9999.0,279.90999999999991
2013-01-03,00:00,3.000,263.67766666666665,83.658666666666662,-5.0180000000000007,-9999.0,-0.48100000000000015,-0.92333333333333356,1.03333333333333333E-002,-9999.0,279.90999999999991
